Location: Keewatin
(47.4004°N, 93.0827°W)
Time: 19:22:36
(UTC+00:00)

Envisat - Pass Details

Date: 11 December 2019
Orbit: 764 x 766 km, 98.1° (Epoch: 28 January)

Event Time Altitude Azimuth Distance (km) Brightness Sun altitude
Rises 23:40:01 0° 154° (SSE) 3,221 6.2 -12.6°
Reaches altitude 10° 23:42:19 10° 151° (SSE) 2,299 5.4 -13.0°
Maximum altitude 23:47:19 62° 72° (ENE) 861 3.0 -13.8°
Drops below altitude 10° 23:52:21 10° 352° (N) 2,316 5.4 -14.6°
Sets 23:54:41 0° 350° (N) 3,247 6.2 -15.0°
